This is the latest recevied weather packets stored in our database for station/object N3SBK. If no packets are shown the sender has not sent any weather packets the latest 10 day(s).
| Time | Temp. | Humidity | Pressure | Rain* | Wind** | Luminosity | Snow |
|---|---|---|---|---|---|---|---|
| 1777817122 | 6.67° C | 60% | 1008.4 hPa | 0 mm | - | 62 W/m² | - |
| 1777816820 | 6.67° C | 65% | 1008.5 hPa | 0 mm | - | 37 W/m² | - |
| 1777816517 | 6.11° C | 64% | 1008.3 hPa | 0 mm | - | 44 W/m² | - |
| 1777816214 | 6.11° C | 61% | 1008.3 hPa | 0 mm | - | 50 W/m² | - |
| 1777815912 | 5.56° C | 64% | 1008.4 hPa | 0 mm | - | 54 W/m² | - |
| 1777815609 | 5.56° C | 66% | 1008.3 hPa | 0 mm | - | 151 W/m² | - |
| 1777815306 | 5.56° C | 65% | 1008.5 hPa | 0 mm | - | 75 W/m² | - |
| 1777815002 | 5.56° C | 67% | 1008.3 hPa | 0 mm | - | 65 W/m² | - |
| 1777814699 | 5.56° C | 66% | 1008.2 hPa | 0 mm | - | 54 W/m² | - |
| 1777814396 | 5.56° C | 67% | 1008.3 hPa | 0 mm | - | 49 W/m² | - |
| 1777814093 | 5° C | 66% | 1008.1 hPa | 0 mm | - | 38 W/m² | - |
| 1777813789 | 5° C | 67% | 1008.2 hPa | 0 mm | - | 36 W/m² | - |
| 1777813487 | 4.44° C | 71% | 1008.3 hPa | 0 mm | - | 44 W/m² | - |
| 1777813185 | 4.44° C | 73% | 1008.3 hPa | 0 mm | - | 88 W/m² | - |
| 1777812882 | 3.89° C | 74% | 1008.3 hPa | 0 mm | - | 60 W/m² | - |
| 1777812578 | 3.89° C | 75% | 1008.2 hPa | 0 mm | - | 32 W/m² | - |
| 1777812276 | 3.89° C | 77% | 1008.2 hPa | 0 mm | - | 109 W/m² | - |
| 1777811974 | 3.33° C | 79% | 1008.5 hPa | 0 mm | - | 120 W/m² | - |
| 1777811673 | 2.78° C | 80% | 1008.4 hPa | 0 mm | - | 81 W/m² | - |
| 1777811368 | 2.78° C | 80% | 1008.3 hPa | 0 mm | - | 28 W/m² | - |
| 1777811066 | 2.78° C | 81% | 1008.3 hPa | 0 mm | - | 38 W/m² | - |
| 1777810763 | 2.22° C | 81% | 1008.2 hPa | 0 mm | - | 54 W/m² | - |
| 1777810459 | 2.22° C | 81% | 1008.1 hPa | 0 mm | - | 25 W/m² | - |
| 1777810155 | 2.22° C | 83% | 1008.4 hPa | 0 mm | - | 40 W/m² | - |
| 1777809853 | 1.67° C | 83% | 1008.1 hPa | 0 mm | - | 24 W/m² | - |
* Rain latest hour (hover to see other rain measurements)
** Current wind speed in m/s (hover to see current wind gust speed)